Location: Paddlesworth
(51.1000°N, 1.1333°E)
Time: 23:14:42
(UTC+00:00)

Meteor 2-9 Rocket - Pass Details

Date: 11 May 2021
Orbit: 791 x 896 km, 81.3° (Epoch: 24 June)

Event Time Altitude Azimuth Distance (km) Brightness Sun altitude
Rises 22:17:32 0° 349° (NNW) 3,511 9.0 -17.8°
Reaches altitude 10° 22:20:03 10° 353° (N) 2,558 7.9 -17.9°
Maximum altitude 22:25:50 62° 73° (ENE) 982 4.5 -18.2°
Enters shadow 22:28:32 31° 143° (SE) 1,474 4.9 -18.4°
